Powrót do katalogu

DMSP 5D-2 F13 DEB

AktywnySSO
NORAD 40470·DEBRIS·🇺🇸 United States

Wystrzelony Mar 24, 1995 z Vandenberg Space Force Base

Loading…

Następne Przeloty (najbliższe 24 godziny)

TLE

ŚwieżeSource: Space-Track

Epoka: Sep 13, 2026, 11:20 UTC

1 40470U 95015BN  26256.47243556  .00002013  00000-0  89285-3 0  9993
2 40470  98.9997 259.0049 0042679 190.2747 169.7563 14.23755642592478

Śledź DMSP 5D-2 F13 DEB w czasie rzeczywistym z AllMySat

Download on the App Store